TimeCDT,TemperatureF,Dew PointF,Humidity,Sea Level PressureIn,VisibilityMPH,Wind Direction,Wind SpeedMPH,Gust SpeedMPH,PrecipitationIn,Events,Conditions,WindDirDegrees,DateUTC
12:13 AM,51.8,50.0,94,30.01,4.0,SE,11.5,-,N/A,,Overcast,130,2013-05-27 05:13:00
12:34 AM,51.8,50.0,94,29.98,2.5,ESE,8.1,-,N/A,,Mostly Cloudy,120,2013-05-27 05:34:00
12:54 AM,51.8,50.0,94,29.95,3.0,East,9.2,-,N/A,,Mostly Cloudy,90,2013-05-27 05:54:00
1:13 AM,51.8,50.0,94,29.97,5.0,ESE,10.4,-,N/A,,Mostly Cloudy,110,2013-05-27 06:13:00
1:34 AM,51.8,50.0,94,29.99,5.0,ESE,10.4,17.3,N/A,,Overcast,120,2013-05-27 06:34:00
1:54 AM,51.8,48.2,88,29.97,5.0,ESE,12.7,-,N/A,,Overcast,120,2013-05-27 06:54:00
2:13 AM,51.8,48.2,88,29.98,5.0,SE,12.7,-,N/A,,Overcast,130,2013-05-27 07:13:00
2:34 AM,51.8,48.2,88,29.96,5.0,ESE,10.4,-,N/A,,Overcast,120,2013-05-27 07:34:00
2:54 AM,51.8,48.2,88,29.95,5.0,ESE,11.5,17.3,N/A,,Overcast,120,2013-05-27 07:54:00
3:13 AM,51.8,48.2,88,29.94,3.0,ESE,12.7,-,N/A,,Overcast,120,2013-05-27 08:13:00
3:34 AM,51.8,50.0,94,29.93,3.0,ESE,12.7,-,N/A,,Scattered Clouds,120,2013-05-27 08:34:00
3:54 AM,51.8,48.2,88,29.93,3.0,ESE,12.7,-,N/A,,Scattered Clouds,110,2013-05-27 08:54:00
4:13 AM,51.8,48.2,88,29.93,4.0,ESE,9.2,-,N/A,,Mostly Cloudy,120,2013-05-27 09:13:00
4:34 AM,51.8,48.2,88,29.94,3.0,ESE,8.1,-,N/A,,Scattered Clouds,110,2013-05-27 09:34:00
4:54 AM,51.8,48.2,88,29.94,2.0,East,6.9,-,N/A,,Mostly Cloudy,100,2013-05-27 09:54:00
5:13 AM,51.8,50.0,94,29.94,1.5,ESE,10.4,-,N/A,,Mostly Cloudy,110,2013-05-27 10:13:00
5:34 AM,51.8,50.0,94,29.95,1.2,ESE,9.2,-,N/A,,Overcast,120,2013-05-27 10:34:00
5:53 AM,51.8,50.0,94,29.94,1.8,ESE,10.4,-,N/A,,Light Drizzle,120,2013-05-27 10:53:00
6:14 AM,51.8,50.0,94,29.90,1.2,ESE,12.7,18.4,N/A,Rain,Light Rain,110,2013-05-27 11:14:00
6:34 AM,51.8,51.8,100,29.89,0.5,ESE,11.5,-,N/A,Fog,Fog,110,2013-05-27 11:34:00
6:53 AM,51.8,51.8,100,29.89,0.5,East,11.5,-,N/A,Fog,Fog,100,2013-05-27 11:53:00
7:14 AM,51.8,51.8,100,29.89,1.2,East,9.2,-,N/A,,Overcast,90,2013-05-27 12:14:00
7:34 AM,51.8,51.8,100,29.88,1.0,East,12.7,16.1,N/A,,Overcast,90,2013-05-27 12:34:00
7:53 AM,51.8,51.8,100,29.88,1.0,East,15.0,-,N/A,,Overcast,90,2013-05-27 12:53:00
8:14 AM,53.6,51.8,94,29.89,2.0,East,16.1,-,N/A,,Mostly Cloudy,100,2013-05-27 13:14:00
8:34 AM,53.6,50.0,88,29.88,4.0,East,15.0,-,N/A,,Scattered Clouds,100,2013-05-27 13:34:00
8:53 AM,53.6,51.8,94,29.89,5.0,ESE,13.8,-,N/A,,Scattered Clouds,110,2013-05-27 13:53:00
9:14 AM,55.4,51.8,88,29.91,5.0,ESE,15.0,-,N/A,,Scattered Clouds,110,2013-05-27 14:14:00
9:34 AM,53.6,51.8,94,29.93,4.0,SE,10.4,-,N/A,,Scattered Clouds,130,2013-05-27 14:34:00
9:53 AM,53.6,51.8,94,29.92,2.5,ESE,10.4,-,N/A,,Mist,120,2013-05-27 14:53:00
10:14 AM,53.6,51.8,94,29.91,1.5,ESE,8.1,-,N/A,,Mist,120,2013-05-27 15:14:00
10:34 AM,53.6,51.8,94,29.90,1.2,ESE,9.2,-,N/A,,Unknown,110,2013-05-27 15:34:00
10:53 AM,55.4,51.8,88,29.88,1.0,East,12.7,-,N/A,,Mist,90,2013-05-27 15:53:00
11:14 AM,55.4,51.8,88,29.86,2.5,East,11.5,-,N/A,,Mist,90,2013-05-27 16:14:00
11:34 AM,55.4,51.8,88,29.86,4.0,East,13.8,-,N/A,,Clear,90,2013-05-27 16:34:00
11:53 AM,57.2,51.8,82,29.86,4.0,East,11.5,-,N/A,,Haze,100,2013-05-27 16:53:00
12:14 PM,57.2,51.8,82,29.85,5.0,East,12.7,-,N/A,,Haze,100,2013-05-27 17:14:00
12:33 PM,57.2,51.8,82,29.85,5.0,East,11.5,-,N/A,,Haze,90,2013-05-27 17:33:00
12:54 PM,57.2,51.8,82,29.86,5.0,ESE,9.2,-,N/A,,Haze,110,2013-05-27 17:54:00
1:14 PM,59.0,53.6,82,29.86,7.0,ESE,8.1,-,N/A,,Clear,110,2013-05-27 18:14:00
1:33 PM,59.0,53.6,82,29.85,7.0,ESE,11.5,-,N/A,,Clear,110,2013-05-27 18:33:00
1:54 PM,60.8,53.6,77,29.86,7.0,East,11.5,-,N/A,,Clear,100,2013-05-27 18:54:00
2:14 PM,59.0,51.8,77,29.87,7.0,East,6.9,-,N/A,,Clear,100,2013-05-27 19:14:00
2:33 PM,59.0,53.6,82,29.87,10.0,East,9.2,-,N/A,,Scattered Clouds,100,2013-05-27 19:33:00
2:54 PM,60.8,53.6,77,29.87,10.0,ESE,8.1,-,N/A,,Scattered Clouds,120,2013-05-27 19:54:00
3:13 PM,60.8,53.6,77,29.86,10.0,ESE,5.8,-,N/A,,Scattered Clouds,110,2013-05-27 20:13:00
3:34 PM,60.8,53.6,77,29.85,10.0,East,11.5,-,N/A,,Clear,90,2013-05-27 20:34:00
3:54 PM,60.8,53.6,77,29.84,10.0,East,12.7,-,N/A,,Clear,100,2013-05-27 20:54:00
4:13 PM,60.8,53.6,77,29.84,10.0,East,12.7,-,N/A,,Clear,100,2013-05-27 21:13:00
4:33 PM,60.8,53.6,77,29.83,7.0,ESE,8.1,-,N/A,,Clear,110,2013-05-27 21:33:00
4:54 PM,60.8,53.6,77,29.83,7.0,ESE,10.4,-,N/A,,Clear,120,2013-05-27 21:54:00
5:13 PM,60.8,53.6,77,29.83,10.0,ESE,12.7,-,N/A,,Clear,110,2013-05-27 22:13:00
5:33 PM,60.8,53.6,77,29.83,10.0,ESE,9.2,-,N/A,,Clear,110,2013-05-27 22:33:00
5:54 PM,60.8,53.6,77,29.83,10.0,East,10.4,-,N/A,,Clear,100,2013-05-27 22:54:00
6:13 PM,60.8,53.6,77,29.82,10.0,East,8.1,-,N/A,,Scattered Clouds,90,2013-05-27 23:13:00
6:33 PM,60.8,53.6,77,29.82,10.0,ENE,6.9,-,N/A,,Scattered Clouds,70,2013-05-27 23:33:00
6:54 PM,60.8,53.6,77,29.82,10.0,ESE,8.1,-,N/A,,Scattered Clouds,110,2013-05-27 23:54:00
7:13 PM,60.8,53.6,77,29.82,10.0,East,9.2,-,N/A,,Scattered Clouds,100,2013-05-28 00:13:00
7:34 PM,60.8,53.6,77,29.82,10.0,ESE,9.2,-,N/A,,Scattered Clouds,110,2013-05-28 00:34:00
7:54 PM,60.8,53.6,77,29.81,10.0,ESE,10.4,-,N/A,,Clear,110,2013-05-28 00:54:00
8:13 PM,60.8,53.6,77,29.81,10.0,SE,9.2,-,N/A,,Clear,130,2013-05-28 01:13:00
8:33 PM,59.0,53.6,82,29.81,10.0,ESE,10.4,-,N/A,,Scattered Clouds,120,2013-05-28 01:33:00
8:54 PM,59.0,53.6,82,29.80,10.0,ESE,6.9,-,N/A,,Scattered Clouds,120,2013-05-28 01:54:00
9:13 PM,59.0,51.8,77,29.81,10.0,ESE,11.5,16.1,N/A,,Scattered Clouds,110,2013-05-28 02:13:00
9:33 PM,57.2,53.6,88,29.81,10.0,ESE,8.1,-,N/A,,Mostly Cloudy,110,2013-05-28 02:33:00
9:54 PM,57.2,51.8,82,29.82,10.0,SE,6.9,-,N/A,,Mostly Cloudy,130,2013-05-28 02:54:00
10:13 PM,57.2,53.6,88,29.82,10.0,ESE,6.9,-,N/A,,Mostly Cloudy,120,2013-05-28 03:13:00
10:33 PM,57.2,51.8,82,29.82,10.0,SE,9.2,-,N/A,,Mostly Cloudy,130,2013-05-28 03:33:00
10:54 PM,57.2,51.8,82,29.81,10.0,SE,13.8,-,N/A,,Mostly Cloudy,140,2013-05-28 03:54:00
11:13 PM,57.2,51.8,82,29.80,10.0,ESE,16.1,-,N/A,,Mostly Cloudy,120,2013-05-28 04:13:00
11:33 PM,57.2,51.8,82,29.80,10.0,ESE,11.5,-,N/A,,Overcast,120,2013-05-28 04:33:00
11:54 PM,55.4,51.8,88,29.79,10.0,ESE,9.2,-,N/A,,Overcast,110,2013-05-28 04:54:00